{"data":{"norad_id":69462,"intl_designator":"2026-127V","name":"STARLINK-37525","alt_names":[],"object_type":"PAYLOAD","status":"ACTIVE","operator":null,"country":"US","launch_date":"2026-06-08","launch_site_code":"AFETR","launch_vehicle":null,"mission":null,"orbit_class":"UNKNOWN","rcs_meters":null,"size_class":null,"mass_kg":null,"dimensions":null,"purposes":["comms"],"wikipedia_slug":null,"has_3d_model":false,"image_url":null,"decayed_at":null,"tle_current":{"epoch":"2026-09-19T05:20:26.534112Z","epoch_age_seconds":135798,"freshness":"FRESH","line1":"1 69462U 26127V   26262.22252933  .00024732  00000+0  74033-3 0  9998","line2":"2 69462  53.1600 171.8437 0001103 101.0050 259.1077 15.34415302 15990","mean_motion":15.34415302,"eccentricity":0.0001103,"inclination_deg":53.16,"raan_deg":171.8437,"arg_perigee_deg":101.005,"mean_anomaly_deg":259.1077,"bstar":0.00074033,"rev_number":1599,"period_min":93.846822181913,"perigee_km":461.90322015431,"apogee_km":463.41229947833,"semimajor_km":6840.7947598163,"source":"CELESTRAK","updated_at":"2026-09-20T09:00:44.202694Z"}}}